SP4IM-13 Weather Reports


time (UTC)temp
F
wind
direction
speed
knots
gust
knots
rain 1hr
in
rain 24hr
in
rain mn
in
humidity
%
barometer
mb
20260507004002 57 110 1.7 2.6 0.00 0.00 0.00 82 1004.0
20260507003002 57 109 1.7 2.6 0.00 0.00 0.00 82 1004.0
20260507002002 57 109 1.7 2.6 0.00 0.00 0.00 81 1004.0
20260507001002 58 114 1.7 2.6 0.00 0.00 0.00 81 1004.0
20260507000002 58 112 1.7 2.6 0.00 0.00 0.00 81 1004.0
20260506235002 58 117 2.6 3.5 0.00 0.00 0.00 81 1004.0
20260506234002 58 114 1.7 2.6 0.00 0.00 0.00 80 1004.0
20260506233002 58 116 1.7 2.6 0.00 0.00 0.00 80 1004.0
20260506232001 58 115 1.7 2.6 0.00 0.00 0.00 79 1004.0
20260506231002 59 107 1.7 2.6 0.00 0.00 0.00 79 1004.0
20260506230002 59 114 1.7 2.6 0.00 0.00 0.00 78 1004.0
20260506225002 59 114 1.7 2.6 0.00 0.00 0.00 78 1004.0
20260506224002 60 114 1.7 2.6 0.00 0.00 0.00 77 1004.0
20260506223002 60 113 1.7 2.6 0.00 0.00 0.00 76 1004.0
20260506222002 60 115 1.7 2.6 0.00 0.00 0.00 76 1004.0
20260506221002 60 113 1.7 1.7 0.00 0.00 0.00 75 1004.0
20260506220002 60 114 1.7 1.7 0.00 0.00 0.00 75 1004.0
20260506215004 61 113 1.7 2.6 0.00 0.00 0.00 74 1004.0
20260506214002 61 112 1.7 2.6 0.00 0.00 0.00 73 1004.0
20260506213002 62 113 1.7 2.6 0.00 0.00 0.00 72 1004.0
20260506212002 62 117 1.7 2.6 0.00 0.00 0.00 70 1004.0
20260506211002 63 117 1.7 1.7 0.00 0.00 0.00 70 1004.0
20260506210002 63 118 1.7 2.6 0.00 0.00 0.00 69 1004.0
20260506205002 64 117 1.7 2.6 0.00 0.00 0.00 68 1004.0
20260506204002 64 119 1.7 2.6 0.00 0.00 0.00 67 1004.0
20260506203002 65 121 1.7 1.7 0.00 0.00 0.00 66 1004.0
20260506202003 65 110 1.7 1.7 0.00 0.00 0.00 64 1004.0
20260506201002 66 90 0.9 2.6 0.00 0.00 0.00 63 1004.0
20260506200002 66 90 0.9 2.6 0.00 0.00 0.00 62 1004.0
20260506195002 67 90 0.9 2.6 0.00 0.00 0.00 62 1004.0
20260506194002 67 100 1.7 2.6 0.00 0.00 0.00 61 1004.0
20260506193002 68 106 1.7 3.5 0.00 0.00 0.00 61 1004.0
20260506192001 68 90 1.7 3.5 0.00 0.00 0.00 60 1004.0
20260506191002 69 90 1.7 3.5 0.00 0.00 0.00 59 1004.0
20260506190002 69 90 1.7 2.6 0.00 0.00 0.00 58 1004.0
20260506185003 69 42 1.7 3.5 0.00 0.00 0.00 58 1004.0
20260506184002 70 90 0.9 3.5 0.00 0.00 0.00 57 1003.0
20260506183002 71 104 1.7 3.5 0.00 0.00 0.00 56 1003.0
20260506182002 71 90 1.7 3.5 0.00 0.00 0.00 55 1003.0
20260506181002 72 90 1.7 4.3 0.00 0.00 0.00 54 1003.0
20260506180002 72 90 1.7 3.5 0.00 0.00 0.00 53 1003.0
20260506175002 73 105 1.7 2.6 0.00 0.00 0.00 53 1003.0
20260506174002 73 65 1.7 3.5 0.00 0.00 0.00 52 1003.0
20260506173003 74 16 1.7 4.3 0.00 0.00 0.00 51 1003.0
20260506172002 74 349 1.7 4.3 0.00 0.00 0.00 50 1003.0
20260506171002 75 90 1.7 4.3 0.00 0.00 0.00 49 1002.0
20260506170002 76 41 2.6 5.2 0.00 0.00 0.00 48 1002.0
20260506165002 76 19 2.6 5.2 0.00 0.00 0.00 47 1002.0
20260506164003 76 19 2.6 6.1 0.00 0.00 0.00 47 1002.0
20260506163003 77 11 2.6 7.0 0.00 0.00 0.00 45 1002.0
20260506161002 78 349 2.6 9.6 0.00 0.00 0.00 44 1002.0
20260506160002 79 333 2.6 7.0 0.00 0.00 0.00 44 1002.0
20260506155002 79 315 2.6 7.8 0.00 0.00 0.00 44 1002.0
20260506154003 78 287 1.7 5.2 0.00 0.00 0.00 44 1002.0
20260506153002 79 320 2.6 7.0 0.00 0.00 0.00 43 1002.0
20260506152002 79 319 3.5 10.4 0.00 0.00 0.00 42 1002.0
20260506151003 80 308 2.6 8.7 0.00 0.00 0.00 41 1002.0
20260506150003 80 291 2.6 7.8 0.00 0.00 0.00 40 1002.0
20260506145002 81 291 2.6 8.7 0.00 0.00 0.00 39 1002.0
20260506144002 81 303 2.6 11.3 0.00 0.00 0.00 38 1002.0
20260506143002 81 275 2.6 6.1 0.00 0.00 0.00 38 1002.0
20260506142003 81 284 3.5 7.0 0.00 0.00 0.00 38 1001.0
20260506141002 81 285 4.3 9.6 0.00 0.00 0.00 38 1002.0
20260506140002 81 280 1.7 7.0 0.00 0.00 0.00 38 1001.0
20260506135002 81 282 2.6 7.0 0.00 0.00 0.00 37 1001.0
20260506134002 81 258 2.6 4.3 0.00 0.00 0.00 37 1001.0
20260506133002 82 261 3.5 7.0 0.00 0.00 0.00 37 1001.0
20260506132002 82 283 3.5 7.8 0.00 0.00 0.00 38 1002.0
20260506131002 81 270 3.5 9.6 0.00 0.00 0.00 37 1002.0
20260506130003 81 281 2.6 7.0 0.00 0.00 0.00 37 1002.0
20260506125002 81 255 3.5 11.3 0.00 0.00 0.00 37 1002.0
20260506124002 82 233 3.5 8.7 0.00 0.00 0.00 37 1002.0
20260506123003 82 205 2.6 7.0 0.00 0.00 0.00 40 1002.0
20260506122003 82 154 1.7 3.5 0.00 0.00 0.00 41 1002.0
20260506121002 82 128 2.6 4.3 0.00 0.00 0.00 42 1002.0
20260506120002 82 126 2.6 4.3 0.00 0.00 0.00 43 1002.0
20260506115002 81 260 1.7 4.3 0.00 0.00 0.00 45 1002.0
20260506114004 80 128 2.6 4.3 0.00 0.00 0.00 45 1002.0
20260506113002 80 270 1.7 4.3 0.00 0.00 0.00 46 1002.0
20260506112002 80 260 1.7 4.3 0.00 0.00 0.00 46 1002.0
20260506111002 79 145 1.7 4.3 0.00 0.00 0.00 48 1003.0
20260506110002 79 138 1.7 4.3 0.00 0.00 0.00 50 1003.0
20260506105002 78 132 1.7 3.5 0.00 0.00 0.00 52 1003.0
20260506104002 77 135 2.6 7.8 0.00 0.00 0.00 54 1003.0
20260506103002 76 127 1.7 4.3 0.00 0.00 0.00 57 1003.0
20260506102002 75 128 2.6 7.8 0.00 0.00 0.00 58 1003.0
20260506101002 74 128 2.6 7.0 0.00 0.00 0.00 59 1003.0
20260506100002 73 128 1.7 3.5 0.00 0.00 0.00 61 1003.0
20260506095002 72 144 1.7 7.0 0.00 0.00 0.00 63 1004.0
20260506094001 71 119 2.6 7.8 0.00 0.00 0.00 63 1004.0
20260506093003 71 122 3.5 5.2 0.00 0.00 0.00 64 1004.0
20260506092003 70 120 1.7 5.2 0.00 0.00 0.00 65 1004.0
20260506091002 70 131 2.6 6.1 0.00 0.00 0.00 65 1004.0
20260506090003 70 127 3.5 7.0 0.00 0.00 0.00 65 1004.0
20260506085002 70 120 1.7 4.3 0.00 0.00 0.00 65 1004.0
20260506084002 69 119 2.6 5.2 0.00 0.00 0.00 66 1004.0
20260506083003 69 132 2.6 5.2 0.00 0.00 0.00 66 1004.0
20260506082005 69 125 2.6 4.3 0.00 0.00 0.00 65 1004.0
20260506081002 67 125 2.6 5.2 0.00 0.00 0.00 65 1004.0
20260506073003 61 134 2.6 6.1 0.00 0.00 0.00 63 1004.0
20260506072003 61 130 3.5 7.0 0.00 0.00 0.00 63 1004.0
20260506071005 60 132 2.6 5.2 0.00 0.00 0.00 66 1004.0
20260506062008 57 139 4.3 7.8 0.00 0.00 0.00 79 1005.0
20260506061005 56 126 2.6 7.0 0.00 0.00 0.00 78 1005.0
20260506051005 54 126 3.5 6.1 0.00 0.00 0.00 75 1005.0
20260506045003 53 122 3.5 7.8 0.00 0.00 0.00 72 1005.0
20260506044005 52 119 4.3 8.7 0.00 0.00 0.00 76 1005.0
20260506043007 52 120 3.5 7.0 0.00 0.00 0.00 82 1005.0
20260506042004 53 122 3.5 7.0 0.00 0.00 0.00 90 1005.0
20260506041003 52 120 3.5 7.0 0.00 0.00 0.00 91 1005.0
20260506040004 51 115 4.3 6.1 0.00 0.00 0.00 90 1005.0
20260506035005 51 114 3.5 6.1 0.00 0.00 0.00 91 1005.0
20260506034005 51 118 2.6 5.2 0.00 0.00 0.00 91 1005.0
20260506033005 51 118 2.6 5.2 0.00 0.00 0.00 91 1005.0
20260506032006 51 122 2.6 4.3 0.00 0.00 0.00 90 1005.0
20260506031005 51 118 2.6 7.0 0.00 0.00 0.00 90 1005.0
20260506030006 51 114 2.6 3.5 0.00 0.00 0.00 90 1005.0
20260506025002 51 115 1.7 4.3 0.00 0.00 0.00 90 1005.0
20260506024002 51 118 3.5 5.2 0.00 0.00 0.00 90 1005.0
20260506023003 52 113 2.6 5.2 0.00 0.00 0.00 90 1005.0
20260506022003 52 116 2.6 4.3 0.00 0.00 0.00 90 1005.0
20260506021002 52 114 2.6 4.3 0.00 0.00 0.00 90 1005.0
20260506020002 52 112 2.6 5.2 0.00 0.00 0.00 91 1005.0
20260506015003 53 120 3.5 5.2 0.00 0.00 0.00 92 1005.0
20260506014002 53 114 2.6 4.3 0.00 0.00 0.00 92 1005.0
20260506013002 53 118 3.5 7.8 0.00 0.00 0.00 93 1005.0
20260506012002 53 114 3.5 5.2 0.00 0.00 0.00 93 1005.0
20260506011002 53 114 3.5 5.2 0.00 0.00 0.00 93 1005.0
20260506010002 54 116 3.5 6.1 0.00 0.00 0.00 93 1005.0
20260506005002 54 117 3.5 7.0 0.00 0.00 0.00 93 1005.0